Location: Newark
(53.3333°N, 83.7500°E)
Time: 16:02:23
(UTC+00:00)

SR - Pass Details

Date: 13 November 2019
Orbit: 573 x 882 km, 66.7° (Epoch: 12 December)

Event Time Altitude Azimuth Distance (km) Brightness Sun altitude
Rises 12:06:18 0° 238° (WSW) 3,228 ? -13.9°
Reaches altitude 10° 12:08:41 10° 243° (WSW) 2,350 ? -14.2°
Maximum altitude 12:14:01 53° 320° (NW) 1,019 ? -15.0°
Enters shadow 12:19:14 12° 36° (NE) 2,340 ? -15.8°
